Weather in Zuhres

Ukraine / Donetsk Region     48˚00′41″N   38˚15′54″E
temp.,
°C
wind,
m/s
gust,
m/s
humid.,
%
clouds,
%
prec.,
mm/h
press.,
hPa
HPBL,
m
27 november, fri
fri2723:00s349310 0.0 102793
02:00ssw349618 0.0 1027104
05:00ssw359680 0.0 1026128
08:00ssw389681 0.0 1026233
11:00+5˚ssw69732 0.0 1025750
14:00+6˚ssw697039 0.0 1024900
17:00+3˚ssw41088100 0.0 1023322
20:00+5˚ssw51089100 0.0 1023506
28 november, sat
sat2823:00+5˚ssw4894100 0.1 1023365
02:00+5˚s489398 0.1 1023270
05:00+5˚s5994100 0.0 1022316
08:00+5˚s599298 0.1 1023363
11:00+6˚sse5784100 0.0 1024362
14:00+8˚sse5873100 0.0 1023628
17:00+4˚se397598 0.0 1023232
20:00+3˚ese499299 0.0 1024278
29 november, sun
sun2923:00+2˚ese3786100 0.0 1023216
02:00+1˚ese489696 0.0 1024229
05:00+2˚se5997100 0.0 1023327
08:00+3˚se6996100 0.0 1024383
11:00+4˚se6986100 0.0 1024439
14:00+7˚se61077100 0.0 1024490
17:00+6˚ese41391100 0.0 1024471
20:00+5˚se51492100 0.0 1025507
30 november, mon
mon3023:00+4˚ese5139495 0.0 1025410
02:00+4˚ese6119693 0.0 1025424
05:00+5˚ese71192100 0.0 1025527
08:00+4˚ese71386100 0.0 1025560
11:00+6˚ese81169100 0.0 1025799
14:00+5˚ese81170100 0.0 1024911
17:00+5˚ese81273100 0.0 10241048
20:00+5˚ese81369100 0.0 1024847
1 december, tue
tue123:00+2˚ese7147266 0.0 1025652
02:00+1˚ese7147350 0.0 1025617
05:00ese715770 0.0 1025591
08:00e815780 0.0 1025612
11:00+3˚ese914677 0.0 1025819
14:00+3˚ese9147148 0.0 1025944
17:00+2˚ese9147499 0.0 1025895
20:00+1˚ese8137698 0.0 1027863